User: anonymous   Login
Location: Aiyekoto
(8.4333°N, 4.3667°E)
Time: 13:25:03
(UTC+00:00)
Language:

Aurora 2 Rocket - Orbit

View from above orbital plane
View from above orbital plane
View from above satellite
View from above satellite

Ground track
Ground track

The orbit data is extracted from the following two-line orbital elements,

1 21393U 91037B   20218.67643743 +.00001686 +00000-0 +11263-3 0  9998
2 21393 024.9885 320.5971 0909377 246.6601 103.5705 13.51421202406139
Epoch (UTC): 05 August 2020 16:14:04
Eccentricity: 0.0909377
inclination: 24.9885°
perigee height: 390 km
apogee height: 1744 km
right ascension of ascending node: 320.5971°
argument of perigee: 246.6601°
revolutions per day: 13.51421202
mean anomaly at epoch: 103.5705°
orbit number at epoch: 40613

The dashed part of the orbit path shows where the satellite is in the earth's shadow,  

DLR